site,time,unit,value
Saltash Whity Cross,2024-03-26T00:05:00+00:00,MVA,1.3860000000000001
Saltash Whity Cross,2024-03-26T00:10:00+00:00,MVA,1.455
Saltash Whity Cross,2024-03-26T00:15:00+00:00,MVA,1.479
Saltash Whity Cross,2024-03-26T00:20:00+00:00,MVA,1.482
Saltash Whity Cross,2024-03-26T00:25:00+00:00,MVA,1.525
Saltash Whity Cross,2024-03-26T00:30:00+00:00,MVA,1.539
Saltash Whity Cross,2024-03-26T00:35:00+00:00,MVA,1.562
Saltash Whity Cross,2024-03-26T00:40:00+00:00,MVA,1.559
Saltash Whity Cross,2024-03-26T00:45:00+00:00,MVA,1.553
Saltash Whity Cross,2024-03-26T00:50:00+00:00,MVA,1.547
Saltash Whity Cross,2024-03-26T00:55:00+00:00,MVA,1.541
Saltash Whity Cross,2024-03-26T01:00:00+00:00,MVA,1.534
Saltash Whity Cross,2024-03-26T01:05:00+00:00,MVA,1.51
Saltash Whity Cross,2024-03-26T01:10:00+00:00,MVA,1.48
Saltash Whity Cross,2024-03-26T01:15:00+00:00,MVA,1.538
Saltash Whity Cross,2024-03-26T01:20:00+00:00,MVA,1.546
Saltash Whity Cross,2024-03-26T01:25:00+00:00,MVA,1.516
Saltash Whity Cross,2024-03-26T01:30:00+00:00,MVA,1.5070000000000001
Saltash Whity Cross,2024-03-26T01:35:00+00:00,MVA,1.5070000000000001
Saltash Whity Cross,2024-03-26T01:40:00+00:00,MVA,1.5150000000000001
Saltash Whity Cross,2024-03-26T01:45:00+00:00,MVA,1.522
Saltash Whity Cross,2024-03-26T01:50:00+00:00,MVA,1.529
Saltash Whity Cross,2024-03-26T01:55:00+00:00,MVA,1.484
Saltash Whity Cross,2024-03-26T02:00:00+00:00,MVA,1.436
Saltash Whity Cross,2024-03-26T02:05:00+00:00,MVA,1.475
Saltash Whity Cross,2024-03-26T02:10:00+00:00,MVA,1.482
Saltash Whity Cross,2024-03-26T02:15:00+00:00,MVA,1.468
Saltash Whity Cross,2024-03-26T02:20:00+00:00,MVA,1.453
Saltash Whity Cross,2024-03-26T02:25:00+00:00,MVA,1.438
Saltash Whity Cross,2024-03-26T02:30:00+00:00,MVA,1.428
Saltash Whity Cross,2024-03-26T02:35:00+00:00,MVA,1.467
Saltash Whity Cross,2024-03-26T02:40:00+00:00,MVA,1.464
Saltash Whity Cross,2024-03-26T02:45:00+00:00,MVA,1.46
Saltash Whity Cross,2024-03-26T02:50:00+00:00,MVA,1.426
Saltash Whity Cross,2024-03-26T02:55:00+00:00,MVA,1.445
Saltash Whity Cross,2024-03-26T03:00:00+00:00,MVA,1.423
Saltash Whity Cross,2024-03-26T03:05:00+00:00,MVA,1.4
Saltash Whity Cross,2024-03-26T03:10:00+00:00,MVA,1.419
Saltash Whity Cross,2024-03-26T03:15:00+00:00,MVA,1.3940000000000001
Saltash Whity Cross,2024-03-26T03:20:00+00:00,MVA,1.343
Saltash Whity Cross,2024-03-26T03:25:00+00:00,MVA,1.349
Saltash Whity Cross,2024-03-26T03:30:00+00:00,MVA,1.316
Saltash Whity Cross,2024-03-26T03:35:00+00:00,MVA,1.364
Saltash Whity Cross,2024-03-26T03:40:00+00:00,MVA,1.3800000000000001
Saltash Whity Cross,2024-03-26T03:45:00+00:00,MVA,1.335
Saltash Whity Cross,2024-03-26T03:50:00+00:00,MVA,1.338
Saltash Whity Cross,2024-03-26T03:55:00+00:00,MVA,1.315
Saltash Whity Cross,2024-03-26T04:00:00+00:00,MVA,1.329
Saltash Whity Cross,2024-03-26T04:05:00+00:00,MVA,1.305
Saltash Whity Cross,2024-03-26T04:10:00+00:00,MVA,1.313
Saltash Whity Cross,2024-03-26T04:15:00+00:00,MVA,1.335
Saltash Whity Cross,2024-03-26T04:20:00+00:00,MVA,1.334
Saltash Whity Cross,2024-03-26T04:25:00+00:00,MVA,1.276
Saltash Whity Cross,2024-03-26T04:30:00+00:00,MVA,1.275
Saltash Whity Cross,2024-03-26T04:35:00+00:00,MVA,1.302
Saltash Whity Cross,2024-03-26T04:40:00+00:00,MVA,1.284
Saltash Whity Cross,2024-03-26T04:45:00+00:00,MVA,1.24
Saltash Whity Cross,2024-03-26T04:50:00+00:00,MVA,1.218
Saltash Whity Cross,2024-03-26T04:55:00+00:00,MVA,1.2630000000000001
Saltash Whity Cross,2024-03-26T05:00:00+00:00,MVA,1.274
Saltash Whity Cross,2024-03-26T05:05:00+00:00,MVA,1.285
Saltash Whity Cross,2024-03-26T05:10:00+00:00,MVA,1.296
Saltash Whity Cross,2024-03-26T05:15:00+00:00,MVA,1.309
Saltash Whity Cross,2024-03-26T05:20:00+00:00,MVA,1.322
Saltash Whity Cross,2024-03-26T05:25:00+00:00,MVA,1.334
Saltash Whity Cross,2024-03-26T05:30:00+00:00,MVA,1.347
Saltash Whity Cross,2024-03-26T05:35:00+00:00,MVA,1.36
Saltash Whity Cross,2024-03-26T05:40:00+00:00,MVA,1.3800000000000001
Saltash Whity Cross,2024-03-26T05:45:00+00:00,MVA,1.414
Saltash Whity Cross,2024-03-26T05:50:00+00:00,MVA,1.445
Saltash Whity Cross,2024-03-26T05:55:00+00:00,MVA,1.451
Saltash Whity Cross,2024-03-26T06:00:00+00:00,MVA,1.423
Saltash Whity Cross,2024-03-26T06:05:00+00:00,MVA,1.47
Saltash Whity Cross,2024-03-26T06:10:00+00:00,MVA,1.5010000000000001
Saltash Whity Cross,2024-03-26T06:15:00+00:00,MVA,1.531
Saltash Whity Cross,2024-03-26T06:20:00+00:00,MVA,1.561
Saltash Whity Cross,2024-03-26T06:25:00+00:00,MVA,1.588
Saltash Whity Cross,2024-03-26T06:30:00+00:00,MVA,1.556
Saltash Whity Cross,2024-03-26T06:35:00+00:00,MVA,1.573
Saltash Whity Cross,2024-03-26T06:40:00+00:00,MVA,1.602
Saltash Whity Cross,2024-03-26T06:45:00+00:00,MVA,1.641
Saltash Whity Cross,2024-03-26T06:50:00+00:00,MVA,1.586
Saltash Whity Cross,2024-03-26T06:55:00+00:00,MVA,1.525
Saltash Whity Cross,2024-03-26T07:00:00+00:00,MVA,1.603
Saltash Whity Cross,2024-03-26T07:05:00+00:00,MVA,1.639
Saltash Whity Cross,2024-03-26T07:10:00+00:00,MVA,1.645
Saltash Whity Cross,2024-03-26T07:15:00+00:00,MVA,1.693
Saltash Whity Cross,2024-03-26T07:20:00+00:00,MVA,1.686
Saltash Whity Cross,2024-03-26T07:25:00+00:00,MVA,1.703
Saltash Whity Cross,2024-03-26T07:30:00+00:00,MVA,1.651
Saltash Whity Cross,2024-03-26T07:35:00+00:00,MVA,1.623
Saltash Whity Cross,2024-03-26T07:40:00+00:00,MVA,1.586
Saltash Whity Cross,2024-03-26T07:45:00+00:00,MVA,1.605
Saltash Whity Cross,2024-03-26T07:50:00+00:00,MVA,1.6320000000000001
Saltash Whity Cross,2024-03-26T07:55:00+00:00,MVA,1.558
Saltash Whity Cross,2024-03-26T08:00:00+00:00,MVA,1.594
Saltash Whity Cross,2024-03-26T08:05:00+00:00,MVA,1.574
Saltash Whity Cross,2024-03-26T08:10:00+00:00,MVA,1.611
Saltash Whity Cross,2024-03-26T08:15:00+00:00,MVA,1.559
Saltash Whity Cross,2024-03-26T08:20:00+00:00,MVA,1.46
Saltash Whity Cross,2024-03-26T08:25:00+00:00,MVA,1.331
Saltash Whity Cross,2024-03-26T08:30:00+00:00,MVA,1.293
Saltash Whity Cross,2024-03-26T08:35:00+00:00,MVA,1.283
Saltash Whity Cross,2024-03-26T08:40:00+00:00,MVA,1.158
Saltash Whity Cross,2024-03-26T08:45:00+00:00,MVA,1.197
Saltash Whity Cross,2024-03-26T08:50:00+00:00,MVA,1.192
Saltash Whity Cross,2024-03-26T08:55:00+00:00,MVA,1.2550000000000001
Saltash Whity Cross,2024-03-26T09:00:00+00:00,MVA,1.318
Saltash Whity Cross,2024-03-26T09:05:00+00:00,MVA,1.368
Saltash Whity Cross,2024-03-26T09:10:00+00:00,MVA,1.43
Saltash Whity Cross,2024-03-26T09:15:00+00:00,MVA,1.3880000000000001
Saltash Whity Cross,2024-03-26T09:20:00+00:00,MVA,1.442
Saltash Whity Cross,2024-03-26T09:25:00+00:00,MVA,1.405
Saltash Whity Cross,2024-03-26T09:30:00+00:00,MVA,1.36
Saltash Whity Cross,2024-03-26T09:35:00+00:00,MVA,1.264
Saltash Whity Cross,2024-03-26T09:40:00+00:00,MVA,1.359
Saltash Whity Cross,2024-03-26T09:45:00+00:00,MVA,1.311
Saltash Whity Cross,2024-03-26T09:50:00+00:00,MVA,1.106
Saltash Whity Cross,2024-03-26T09:55:00+00:00,MVA,1.1360000000000001
Saltash Whity Cross,2024-03-26T10:00:00+00:00,MVA,0.9600000000000001
Saltash Whity Cross,2024-03-26T10:05:00+00:00,MVA,1.145
Saltash Whity Cross,2024-03-26T10:10:00+00:00,MVA,1.093
Saltash Whity Cross,2024-03-26T10:15:00+00:00,MVA,0.9
Saltash Whity Cross,2024-03-26T10:20:00+00:00,MVA,1.077
Saltash Whity Cross,2024-03-26T10:25:00+00:00,MVA,1.246
Saltash Whity Cross,2024-03-26T10:30:00+00:00,MVA,1.224
Saltash Whity Cross,2024-03-26T10:35:00+00:00,MVA,1.089
Saltash Whity Cross,2024-03-26T10:40:00+00:00,MVA,0.9610000000000001
Saltash Whity Cross,2024-03-26T10:45:00+00:00,MVA,1.135
Saltash Whity Cross,2024-03-26T10:50:00+00:00,MVA,1.041
Saltash Whity Cross,2024-03-26T10:55:00+00:00,MVA,0.9560000000000001
Saltash Whity Cross,2024-03-26T11:00:00+00:00,MVA,1.067
Saltash Whity Cross,2024-03-26T11:05:00+00:00,MVA,1.088
Saltash Whity Cross,2024-03-26T11:10:00+00:00,MVA,0.909
Saltash Whity Cross,2024-03-26T11:15:00+00:00,MVA,0.928
Saltash Whity Cross,2024-03-26T11:20:00+00:00,MVA,0.966
Saltash Whity Cross,2024-03-26T11:25:00+00:00,MVA,1.004
Saltash Whity Cross,2024-03-26T11:30:00+00:00,MVA,0.981
Saltash Whity Cross,2024-03-26T11:35:00+00:00,MVA,0.913
Saltash Whity Cross,2024-03-26T11:40:00+00:00,MVA,0.886
Saltash Whity Cross,2024-03-26T11:45:00+00:00,MVA,0.93
Saltash Whity Cross,2024-03-26T11:50:00+00:00,MVA,0.724
Saltash Whity Cross,2024-03-26T11:55:00+00:00,MVA,0.92
Saltash Whity Cross,2024-03-26T12:00:00+00:00,MVA,0.8220000000000001
Saltash Whity Cross,2024-03-26T12:05:00+00:00,MVA,0.64
Saltash Whity Cross,2024-03-26T12:10:00+00:00,MVA,0.782
Saltash Whity Cross,2024-03-26T12:15:00+00:00,MVA,0.725
Saltash Whity Cross,2024-03-26T12:20:00+00:00,MVA,0.735
Saltash Whity Cross,2024-03-26T12:25:00+00:00,MVA,0.542
Saltash Whity Cross,2024-03-26T12:30:00+00:00,MVA,0.597
Saltash Whity Cross,2024-03-26T12:35:00+00:00,MVA,0.791
Saltash Whity Cross,2024-03-26T12:40:00+00:00,MVA,0.797
Saltash Whity Cross,2024-03-26T12:45:00+00:00,MVA,0.762
Saltash Whity Cross,2024-03-26T12:50:00+00:00,MVA,0.8330000000000001
Saltash Whity Cross,2024-03-26T12:55:00+00:00,MVA,0.59
Saltash Whity Cross,2024-03-26T13:00:00+00:00,MVA,0.591
Saltash Whity Cross,2024-03-26T13:05:00+00:00,MVA,0.5660000000000001
Saltash Whity Cross,2024-03-26T13:10:00+00:00,MVA,0.7010000000000001
Saltash Whity Cross,2024-03-26T13:15:00+00:00,MVA,0.763
Saltash Whity Cross,2024-03-26T13:20:00+00:00,MVA,0.761
Saltash Whity Cross,2024-03-26T13:25:00+00:00,MVA,0.763
Saltash Whity Cross,2024-03-26T13:30:00+00:00,MVA,0.786
Saltash Whity Cross,2024-03-26T13:35:00+00:00,MVA,0.903
Saltash Whity Cross,2024-03-26T13:40:00+00:00,MVA,0.898
Saltash Whity Cross,2024-03-26T13:45:00+00:00,MVA,0.8230000000000001
Saltash Whity Cross,2024-03-26T13:50:00+00:00,MVA,0.654
Saltash Whity Cross,2024-03-26T13:55:00+00:00,MVA,0.736
Saltash Whity Cross,2024-03-26T14:00:00+00:00,MVA,0.724
Saltash Whity Cross,2024-03-26T14:05:00+00:00,MVA,0.654
Saltash Whity Cross,2024-03-26T14:10:00+00:00,MVA,0.66
Saltash Whity Cross,2024-03-26T14:15:00+00:00,MVA,0.606
Saltash Whity Cross,2024-03-26T14:20:00+00:00,MVA,0.621
Saltash Whity Cross,2024-03-26T14:25:00+00:00,MVA,0.644
Saltash Whity Cross,2024-03-26T14:30:00+00:00,MVA,0.549
Saltash Whity Cross,2024-03-26T14:35:00+00:00,MVA,0.373
Saltash Whity Cross,2024-03-26T14:40:00+00:00,MVA,0.48000000000000004
Saltash Whity Cross,2024-03-26T14:45:00+00:00,MVA,0.647
Saltash Whity Cross,2024-03-26T14:50:00+00:00,MVA,0.8200000000000001
Saltash Whity Cross,2024-03-26T14:55:00+00:00,MVA,0.86
Saltash Whity Cross,2024-03-26T15:00:00+00:00,MVA,0.739
Saltash Whity Cross,2024-03-26T15:05:00+00:00,MVA,0.7100000000000001
Saltash Whity Cross,2024-03-26T15:10:00+00:00,MVA,0.7100000000000001
Saltash Whity Cross,2024-03-26T15:15:00+00:00,MVA,0.6980000000000001
Saltash Whity Cross,2024-03-26T15:20:00+00:00,MVA,0.756
Saltash Whity Cross,2024-03-26T15:25:00+00:00,MVA,0.72
Saltash Whity Cross,2024-03-26T15:30:00+00:00,MVA,0.678
Saltash Whity Cross,2024-03-26T15:35:00+00:00,MVA,0.648
Saltash Whity Cross,2024-03-26T15:40:00+00:00,MVA,0.668
Saltash Whity Cross,2024-03-26T15:45:00+00:00,MVA,0.762
Saltash Whity Cross,2024-03-26T15:50:00+00:00,MVA,0.852
Saltash Whity Cross,2024-03-26T15:55:00+00:00,MVA,0.851
Saltash Whity Cross,2024-03-26T16:00:00+00:00,MVA,0.8310000000000001
Saltash Whity Cross,2024-03-26T16:05:00+00:00,MVA,0.881
Saltash Whity Cross,2024-03-26T16:10:00+00:00,MVA,0.999
Saltash Whity Cross,2024-03-26T16:15:00+00:00,MVA,1.075
Saltash Whity Cross,2024-03-26T16:20:00+00:00,MVA,1.121
Saltash Whity Cross,2024-03-26T16:25:00+00:00,MVA,1.205
Saltash Whity Cross,2024-03-26T16:30:00+00:00,MVA,1.186
Saltash Whity Cross,2024-03-26T16:35:00+00:00,MVA,1.221
Saltash Whity Cross,2024-03-26T16:40:00+00:00,MVA,1.289
Saltash Whity Cross,2024-03-26T16:45:00+00:00,MVA,1.402
Saltash Whity Cross,2024-03-26T16:50:00+00:00,MVA,1.426
Saltash Whity Cross,2024-03-26T16:55:00+00:00,MVA,1.484
Saltash Whity Cross,2024-03-26T17:00:00+00:00,MVA,1.456
Saltash Whity Cross,2024-03-26T17:05:00+00:00,MVA,1.476
Saltash Whity Cross,2024-03-26T17:10:00+00:00,MVA,1.491
Saltash Whity Cross,2024-03-26T17:15:00+00:00,MVA,1.535
Saltash Whity Cross,2024-03-26T17:20:00+00:00,MVA,1.631
Saltash Whity Cross,2024-03-26T17:25:00+00:00,MVA,1.681
Saltash Whity Cross,2024-03-26T17:30:00+00:00,MVA,1.735
Saltash Whity Cross,2024-03-26T17:35:00+00:00,MVA,1.694
Saltash Whity Cross,2024-03-26T17:40:00+00:00,MVA,1.713
Saltash Whity Cross,2024-03-26T17:45:00+00:00,MVA,1.725
Saltash Whity Cross,2024-03-26T17:50:00+00:00,MVA,1.7610000000000001
Saltash Whity Cross,2024-03-26T17:55:00+00:00,MVA,1.839
Saltash Whity Cross,2024-03-26T18:00:00+00:00,MVA,1.785
Saltash Whity Cross,2024-03-26T18:05:00+00:00,MVA,1.857
Saltash Whity Cross,2024-03-26T18:10:00+00:00,MVA,1.871
Saltash Whity Cross,2024-03-26T18:15:00+00:00,MVA,1.921
Saltash Whity Cross,2024-03-26T18:20:00+00:00,MVA,1.928
Saltash Whity Cross,2024-03-26T18:25:00+00:00,MVA,1.935
Saltash Whity Cross,2024-03-26T18:30:00+00:00,MVA,1.931
Saltash Whity Cross,2024-03-26T18:35:00+00:00,MVA,1.97
Saltash Whity Cross,2024-03-26T18:40:00+00:00,MVA,1.971
Saltash Whity Cross,2024-03-26T18:45:00+00:00,MVA,1.985
Saltash Whity Cross,2024-03-26T18:50:00+00:00,MVA,2.016
Saltash Whity Cross,2024-03-26T18:55:00+00:00,MVA,2.036
Saltash Whity Cross,2024-03-26T19:00:00+00:00,MVA,2.047
Saltash Whity Cross,2024-03-26T19:05:00+00:00,MVA,2.071
Saltash Whity Cross,2024-03-26T19:10:00+00:00,MVA,2.01
Saltash Whity Cross,2024-03-26T19:15:00+00:00,MVA,1.99
Saltash Whity Cross,2024-03-26T19:20:00+00:00,MVA,1.942
Saltash Whity Cross,2024-03-26T19:25:00+00:00,MVA,1.849
Saltash Whity Cross,2024-03-26T19:30:00+00:00,MVA,1.827
Saltash Whity Cross,2024-03-26T19:35:00+00:00,MVA,1.902
Saltash Whity Cross,2024-03-26T19:40:00+00:00,MVA,1.895
Saltash Whity Cross,2024-03-26T19:45:00+00:00,MVA,1.85
Saltash Whity Cross,2024-03-26T19:50:00+00:00,MVA,1.817
Saltash Whity Cross,2024-03-26T19:55:00+00:00,MVA,1.804
Saltash Whity Cross,2024-03-26T20:00:00+00:00,MVA,1.754
Saltash Whity Cross,2024-03-26T20:05:00+00:00,MVA,1.727
Saltash Whity Cross,2024-03-26T20:10:00+00:00,MVA,1.738
Saltash Whity Cross,2024-03-26T20:15:00+00:00,MVA,1.701
Saltash Whity Cross,2024-03-26T20:20:00+00:00,MVA,1.733
Saltash Whity Cross,2024-03-26T20:25:00+00:00,MVA,1.747
Saltash Whity Cross,2024-03-26T20:30:00+00:00,MVA,1.7510000000000001
Saltash Whity Cross,2024-03-26T20:35:00+00:00,MVA,1.774
Saltash Whity Cross,2024-03-26T20:40:00+00:00,MVA,1.716
Saltash Whity Cross,2024-03-26T20:45:00+00:00,MVA,1.699
Saltash Whity Cross,2024-03-26T20:50:00+00:00,MVA,1.641
Saltash Whity Cross,2024-03-26T20:55:00+00:00,MVA,1.657
Saltash Whity Cross,2024-03-26T21:00:00+00:00,MVA,1.68
Saltash Whity Cross,2024-03-26T21:05:00+00:00,MVA,1.631
Saltash Whity Cross,2024-03-26T21:10:00+00:00,MVA,1.603
Saltash Whity Cross,2024-03-26T21:15:00+00:00,MVA,1.553
Saltash Whity Cross,2024-03-26T21:20:00+00:00,MVA,1.606
Saltash Whity Cross,2024-03-26T21:25:00+00:00,MVA,1.5030000000000001
Saltash Whity Cross,2024-03-26T21:30:00+00:00,MVA,1.462
Saltash Whity Cross,2024-03-26T21:35:00+00:00,MVA,1.438
Saltash Whity Cross,2024-03-26T21:40:00+00:00,MVA,1.435
Saltash Whity Cross,2024-03-26T21:45:00+00:00,MVA,1.437
Saltash Whity Cross,2024-03-26T21:50:00+00:00,MVA,1.492
Saltash Whity Cross,2024-03-26T21:55:00+00:00,MVA,1.472
Saltash Whity Cross,2024-03-26T22:00:00+00:00,MVA,1.415
Saltash Whity Cross,2024-03-26T22:05:00+00:00,MVA,1.3820000000000001
Saltash Whity Cross,2024-03-26T22:10:00+00:00,MVA,1.407
Saltash Whity Cross,2024-03-26T22:15:00+00:00,MVA,1.468
Saltash Whity Cross,2024-03-26T22:20:00+00:00,MVA,1.42
Saltash Whity Cross,2024-03-26T22:25:00+00:00,MVA,1.345
Saltash Whity Cross,2024-03-26T22:30:00+00:00,MVA,1.321
Saltash Whity Cross,2024-03-26T22:35:00+00:00,MVA,1.303
Saltash Whity Cross,2024-03-26T22:40:00+00:00,MVA,1.29
Saltash Whity Cross,2024-03-26T22:45:00+00:00,MVA,1.308
Saltash Whity Cross,2024-03-26T22:50:00+00:00,MVA,1.299
Saltash Whity Cross,2024-03-26T22:55:00+00:00,MVA,1.285
Saltash Whity Cross,2024-03-26T23:00:00+00:00,MVA,1.26
Saltash Whity Cross,2024-03-26T23:05:00+00:00,MVA,1.239
Saltash Whity Cross,2024-03-26T23:10:00+00:00,MVA,1.246
Saltash Whity Cross,2024-03-26T23:15:00+00:00,MVA,1.246
Saltash Whity Cross,2024-03-26T23:20:00+00:00,MVA,1.2550000000000001
Saltash Whity Cross,2024-03-26T23:25:00+00:00,MVA,1.206
Saltash Whity Cross,2024-03-26T23:30:00+00:00,MVA,1.208
Saltash Whity Cross,2024-03-26T23:35:00+00:00,MVA,1.235
Saltash Whity Cross,2024-03-26T23:40:00+00:00,MVA,1.237
Saltash Whity Cross,2024-03-26T23:45:00+00:00,MVA,1.196
Saltash Whity Cross,2024-03-26T23:50:00+00:00,MVA,1.223
Saltash Whity Cross,2024-03-26T23:55:00+00:00,MVA,1.205
Saltash Whity Cross,2024-03-27T00:00:00+00:00,MVA,1.22
